KX4BI Weather Reports


time (UTC)temp
F
wind
direction
speed
knots
gust
knots
rain 1hr
in
rain 24hr
in
rain mn
in
humidity
%
barometer
mb
20260906052504 77 311 0.0 0.0 0.00 0.00 0.00 86 1012.8
20260906052005 77 311 0.0 0.0 0.00 0.00 0.00 86 1012.9
20260906051506 77 311 0.0 0.0 0.00 0.00 0.00 85 1012.9
20260906051004 77 311 0.0 0.0 0.00 0.00 0.00 85 1013.0
20260906050505 77 311 0.0 0.9 0.00 0.00 0.00 85 1013.0
20260906050009 78 310 0.0 0.9 0.00 0.00 0.00 85 1013.1
20260906045504 78 8 0.0 0.9 0.00 0.00 0.00 84 1013.1
20260906045008 78 8 0.0 1.7 0.00 0.00 0.00 84 1013.2
20260906044510 78 8 0.9 1.7 0.00 0.00 0.00 84 1013.2
20260906044008 78 8 0.0 1.7 0.00 0.00 0.00 84 1013.1
20260906043504 78 8 0.0 1.7 0.00 0.00 0.00 84 1013.2
20260906043009 78 316 0.0 0.9 0.00 0.00 0.00 84 1013.2
20260906042504 78 316 0.0 0.9 0.00 0.00 0.00 84 1013.2
20260906042005 78 316 0.0 0.9 0.00 0.00 0.00 84 1013.2
20260906041509 78 316 0.0 0.9 0.00 0.00 0.00 84 1013.3
20260906041008 78 283 0.9 0.9 0.00 0.00 0.00 84 1013.3
20260906040504 78 283 0.0 0.9 0.00 0.00 0.00 84 1013.2
20260906040009 78 283 0.0 0.9 0.00 0.00 0.00 85 1013.2
20260906035504 78 282 0.0 0.9 0.00 0.00 0.00 86 1013.3
20260906035006 77 282 0.0 1.7 0.00 0.00 0.00 86 1013.2
20260906034510 78 282 0.0 1.7 0.00 0.00 0.00 86 1013.3
20260906034004 77 115 0.0 1.7 0.00 0.00 0.00 86 1013.3
20260906033505 78 115 0.0 1.7 0.00 0.00 0.00 85 1013.4
20260906033018 79 30 0.0 1.7 0.00 0.00 0.00 84 1013.3
20260906032504 78 20 0.0 6.1 0.00 0.00 0.00 84 1013.3
20260906032007 78 83 0.0 6.1 0.00 0.00 0.00 84 1013.3
20260906031509 78 97 3.5 5.2 0.00 0.00 0.00 84 1013.3
20260906031007 79 335 0.0 0.9 0.00 0.00 0.00 81 1013.1
20260906030506 79 335 0.0 0.9 0.00 0.00 0.00 82 1013.0
20260906030007 79 335 0.0 0.9 0.00 0.00 0.00 82 1012.9
20260906025504 79 335 0.0 0.9 0.00 0.00 0.00 82 1012.9
20260906025004 80 335 0.0 0.9 0.00 0.00 0.00 80 1012.9
20260906024506 80 335 0.9 0.9 0.00 0.00 0.00 79 1012.7
20260906024005 80 334 0.0 0.9 0.00 0.00 0.00 80 1012.6
20260906023505 79 334 0.0 0.9 0.00 0.00 0.00 81 1012.5
20260906023012 79 334 0.9 0.9 0.00 0.00 0.00 81 1012.5
20260906022510 79 23 0.0 0.9 0.00 0.00 0.00 81 1012.5
20260906022006 79 23 0.0 0.0 0.00 0.00 0.00 81 1012.5
20260906021508 79 23 0.0 0.0 0.00 0.00 0.00 81 1012.3
20260906021007 79 24 0.0 0.9 0.00 0.00 0.00 80 1012.3
20260906020506 80 24 0.0 0.9 0.00 0.00 0.00 80 1012.2
20260906020011 80 24 0.9 0.9 0.00 0.00 0.00 79 1012.0
20260906015505 81 352 0.0 0.9 0.00 0.00 0.00 76 1011.9
20260906015007 81 352 0.0 0.9 0.00 0.00 0.00 76 1011.9
20260906014509 81 352 0.0 0.9 0.00 0.00 0.00 76 1011.9
20260906014004 81 352 0.0 0.9 0.00 0.00 0.00 76 1012.0
20260906013504 81 352 0.0 0.0 0.00 0.00 0.00 76 1012.1
20260906013010 81 352 0.0 0.0 0.00 0.00 0.00 77 1012.1
20260906012507 82 352 0.0 0.0 0.00 0.00 0.00 76 1011.9
20260906012005 82 352 0.0 0.9 0.00 0.00 0.00 76 1012.0
20260906011512 82 352 0.0 0.9 0.00 0.00 0.00 75 1011.9
20260906011007 82 352 0.0 0.0 0.00 0.00 0.00 75 1011.9
20260906010506 83 352 0.0 0.0 0.00 0.00 0.00 74 1011.9
20260906010010 83 352 0.0 0.9 0.00 0.00 0.00 73 1011.9
20260906005504 83 352 0.0 0.9 0.00 0.00 0.00 73 1011.9
20260906005007 84 352 0.0 0.9 0.00 0.00 0.00 72 1011.9
20260906004516 84 352 0.9 0.9 0.00 0.00 0.00 70 1011.9
20260906004005 84 352 0.9 0.9 0.00 0.00 0.00 69 1011.8
20260906003506 85 352 0.9 0.9 0.00 0.00 0.00 68 1011.8
20260906003008 85 352 0.9 0.9 0.00 0.00 0.00 67 1011.8
20260906002503 85 352 0.0 0.9 0.00 0.00 0.00 67 1011.8
20260906002004 86 352 0.0 0.9 0.00 0.00 0.00 66 1011.7
20260906001517 87 352 0.0 0.0 0.00 0.00 0.00 65 1011.6
20260906001005 87 352 0.0 0.0 0.00 0.00 0.00 64 1011.7
20260906000505 87 352 0.0 0.9 0.00 0.00 0.00 64 1011.8
20260906000034 88 352 0.0 0.9 0.00 0.00 0.00 63 1011.9
20260905235509 88 352 0.0 0.9 0.00 0.00 0.00 62 1011.9
20260905235013 89 352 0.0 0.9 0.00 0.00 0.00 61 1012.0
20260905234513 90 352 0.0 0.9 0.00 0.00 0.00 62 1012.0
20260905234008 90 352 0.0 0.9 0.00 0.00 0.00 58 1012.1
20260905233508 91 352 0.9 0.9 0.00 0.00 0.00 58 1012.0
20260905233014 92 352 0.9 0.9 0.00 0.00 0.00 56 1011.9
20260905232507 92 352 0.0 0.9 0.00 0.00 0.00 55 1012.0
20260905232008 94 352 0.9 0.9 0.00 0.00 0.00 51 1011.9
20260905231510 96 352 0.0 0.0 0.00 0.00 0.00 53 1011.8
20260905231004 96 353 0.0 0.9 0.00 0.00 0.00 49 1011.8
20260905230504 96 353 0.0 0.9 0.00 0.00 0.00 50 1011.9
20260905230015 96 353 0.0 0.9 0.00 0.00 0.00 49 1011.7
20260905225511 96 351 0.0 1.7 0.00 0.00 0.00 48 1011.7
20260905225008 96 351 0.0 1.7 0.00 0.00 0.00 51 1011.7
20260905224517 96 355 0.9 0.9 0.00 0.00 0.00 47 1011.7
20260905224005 96 356 0.0 1.7 0.00 0.00 0.00 47 1011.8
20260905223505 96 343 0.0 2.6 0.00 0.00 0.00 50 1011.9
20260905223016 96 358 0.9 2.6 0.00 0.00 0.00 47 1011.9
20260905222509 96 26 0.9 2.6 0.00 0.00 0.00 50 1012.0
20260905222009 96 30 0.0 1.7 0.00 0.00 0.00 46 1011.9
20260905221516 97 85 0.9 1.7 0.00 0.00 0.00 45 1012.0
20260905221008 96 44 0.0 1.7 0.00 0.00 0.00 46 1012.0
20260905220508 96 325 0.9 2.6 0.00 0.00 0.00 48 1012.0
20260905220013 96 55 0.9 2.6 0.00 0.00 0.00 44 1012.0
20260905215506 96 46 0.0 4.3 0.00 0.00 0.00 47 1012.0
20260905215010 96 349 0.0 4.3 0.00 0.00 0.00 48 1012.1
20260905214519 95 333 0.9 1.7 0.00 0.00 0.00 48 1012.1
20260905214010 95 26 0.0 2.6 0.00 0.00 0.00 49 1012.1
20260905213509 96 26 0.9 2.6 0.00 0.00 0.00 48 1012.1
20260905213015 96 110 0.9 2.6 0.00 0.00 0.00 47 1012.1
20260905212507 95 42 0.9 2.6 0.00 0.00 0.00 47 1012.1
20260905212008 95 300 0.9 3.5 0.00 0.00 0.00 51 1012.2
20260905211516 96 297 0.9 3.5 0.00 0.00 0.00 47 1012.2
20260905211011 97 311 0.9 4.3 0.00 0.00 0.00 46 1012.2
20260905210512 97 151 2.6 4.3 0.00 0.00 0.00 44 1012.1
20260905210018 97 75 0.9 4.3 0.00 0.00 0.00 47 1012.1
20260905205509 97 91 2.6 4.3 0.00 0.00 0.00 45 1012.2
20260905205011 97 118 0.0 4.3 0.00 0.00 0.00 47 1012.3
20260905204510 96 43 1.7 5.2 0.00 0.00 0.00 48 1012.4
20260905204007 96 127 2.6 5.2 0.00 0.00 0.00 46 1012.4
20260905203508 96 79 1.7 2.6 0.00 0.00 0.00 48 1012.5
20260905203019 95 321 0.9 1.7 0.00 0.00 0.00 48 1012.6
20260905202516 95 99 0.0 1.7 0.00 0.00 0.00 54 1012.7
20260905202010 95 99 0.9 2.6 0.00 0.00 0.00 48 1012.8
20260905201518 95 25 0.9 7.0 0.00 0.00 0.00 48 1012.9
20260905201009 97 63 1.7 7.0 0.00 0.00 0.00 48 1012.9
20260905200510 97 335 3.5 7.0 0.00 0.00 0.00 47 1012.9
20260905200027 97 111 1.7 5.2 0.00 0.00 0.00 47 1013.1
20260905195509 97 85 1.7 5.2 0.00 0.00 0.00 46 1013.1
20260905195006 97 124 2.6 5.2 0.00 0.00 0.00 52 1013.2
20260905194508 96 351 1.7 4.3 0.00 0.00 0.00 47 1013.2
20260905194006 96 76 2.6 5.2 0.00 0.00 0.00 49 1013.3
20260905193505 97 61 2.6 7.0 0.00 0.00 0.00 49 1013.4
20260905193011 97 60 2.6 7.0 0.00 0.00 0.00 48 1013.5
20260905192508 97 300 1.7 5.2 0.00 0.00 0.00 47 1013.5
20260905192011 97 217 1.7 5.2 0.00 0.00 0.00 50 1013.6
20260905191519 96 84 1.7 6.1 0.00 0.00 0.00 50 1013.7
20260905191008 96 106 3.5 6.1 0.00 0.00 0.00 49 1013.8
20260905190512 96 58 2.6 5.2 0.00 0.00 0.00 49 1013.8
20260905190024 96 63 1.7 4.3 0.00 0.00 0.00 50 1013.9
20260905185511 96 59 0.9 7.0 0.00 0.00 0.00 51 1014.0
20260905185011 96 351 1.7 7.0 0.00 0.00 0.00 53 1014.0
20260905184542 96 5 1.7 4.3 0.00 0.00 0.00 50 1014.0
20260905184003 96 129 2.6 4.3 0.00 0.00 0.00 51 1014.0
20260905183505 95 8 1.7 5.2 0.00 0.00 0.00 50 1014.1
20260905183029 95 276 0.9 5.2 0.00 0.00 0.00 51 1014.2
20260905182506 95 326 1.7 6.1 0.00 0.00 0.00 51 1014.3
20260905182004 96 9 3.5 6.1 0.00 0.00 0.00 48 1014.2
20260905181516 96 47 1.7 3.5 0.00 0.00 0.00 48 1014.3
20260905181006 96 108 0.9 3.5 0.00 0.00 0.00 52 1014.3
20260905180512 95 359 0.9 5.2 0.00 0.00 0.00 54 1014.4
20260905180021 95 124 2.6 6.1 0.00 0.00 0.00 51 1014.6
20260905175509 95 111 0.9 7.0 0.00 0.00 0.00 52 1014.6
20260905175012 95 86 4.3 7.0 0.00 0.00 0.00 51 1014.6
20260905174526 95 135 2.6 6.1 0.00 0.00 0.00 50 1014.7
20260905174012 94 96 1.7 7.0 0.00 0.00 0.00 51 1014.7
20260905173512 94 117 4.3 7.0 0.00 0.00 0.00 49 1014.7
20260905173025 94 91 3.5 7.0 0.00 0.00 0.00 51 1014.7
20260905172504 94 147 1.7 4.3 0.00 0.00 0.00 49 1014.8
20260905172004 94 88 0.9 5.2 0.00 0.00 0.00 48 1014.9
20260905171509 94 7 2.6 6.1 0.00 0.00 0.00 48 1014.9
20260905171007 94 86 3.5 6.1 0.00 0.00 0.00 49 1015.0
20260905170508 94 342 0.9 2.6 0.00 0.00 0.00 53 1015.0
20260905170017 93 164 0.9 3.5 0.00 0.00 0.00 51 1015.0
20260905165508 93 72 1.7 4.3 0.00 0.00 0.00 54 1015.1
20260905165009 93 76 2.6 4.3 0.00 0.00 0.00 52 1015.2
20260905164525 93 58 2.6 4.3 0.00 0.00 0.00 55 1015.3
20260905164011 92 141 3.5 5.2 0.00 0.00 0.00 54 1015.3
20260905163514 93 102 3.5 5.2 0.00 0.00 0.00 51 1015.3
20260905163028 93 6 0.9 3.5 0.00 0.00 0.00 54 1015.3
20260905162515 93 297 2.6 7.0 0.00 0.00 0.00 55 1015.4
20260905162015 93 110 3.5 7.0 0.00 0.00 0.00 53 1015.5
20260905161524 92 277 0.9 2.6 0.00 0.00 0.00 57 1015.5
20260905161014 92 221 0.9 2.6 0.00 0.00 0.00 56 1015.6
20260905160505 92 105 0.9 3.5 0.00 0.00 0.00 58 1015.7
20260905160009 91 72 1.7 3.5 0.00 0.00 0.00 56 1015.7
20260905155508 91 261 0.9 2.6 0.00 0.00 0.00 57 1015.8
20260905155008 91 184 0.0 5.2 0.00 0.00 0.00 60 1015.8
20260905154517 90 229 0.9 7.0 0.00 0.00 0.00 59 1015.8
20260905154010 90 342 1.7 7.0 0.00 0.00 0.00 62 1015.8
20260905153509 90 336 1.7 5.2 0.00 0.00 0.00 60 1015.8
20260905153024 90 96 0.9 2.6 0.00 0.00 0.00 62 1015.8
20260905152513 90 298 0.9 2.6 0.00 0.00 0.00 61 1015.8
20260905152014 89 109 0.9 3.5 0.00 0.00 0.00 63 1015.8
20260905151530 89 263 1.7 3.5 0.00 0.00 0.00 62 1015.8
20260905151017 88 359 0.9 3.5 0.00 0.00 0.00 63 1015.8
20260905150521 88 292 1.7 3.5 0.00 0.00 0.00 65 1015.7
20260905150027 88 338 1.7 3.5 0.00 0.00 0.00 63 1015.8
20260905145516 88 299 0.9 2.6 0.00 0.00 0.00 64 1015.8
20260905145003 87 72 0.9 2.6 0.00 0.00 0.00 65 1015.9
20260905144510 87 1 1.7 2.6 0.00 0.00 0.00 70 1015.9
20260905144008 86 103 0.9 2.6 0.00 0.00 0.00 65 1015.9
20260905143512 86 97 0.9 2.6 0.00 0.00 0.00 67 1016.0
20260905143019 86 82 0.9 2.6 0.00 0.00 0.00 68 1016.0
20260905142512 85 347 0.9 2.6 0.00 0.00 0.00 67 1015.9
20260905142010 85 330 0.0 2.6 0.00 0.00 0.00 71 1015.9
20260905141528 85 25 0.9 2.6 0.00 0.00 0.00 69 1015.8
20260905141015 84 94 0.9 2.6 0.00 0.00 0.00 72 1016.0
20260905140514 84 77 0.9 2.6 0.00 0.00 0.00 72 1016.0
20260905140031 83 75 0.9 2.6 0.00 0.00 0.00 74 1016.0
20260905135516 83 90 1.7 2.6 0.00 0.00 0.00 74 1016.1
20260905135015 82 96 0.9 2.6 0.00 0.00 0.00 73 1016.0
20260905134526 82 102 0.9 1.7 0.00 0.00 0.00 74 1016.0
20260905134014 81 97 0.9 1.7 0.00 0.00 0.00 76 1016.0
20260905133506 81 117 0.9 1.7 0.00 0.00 0.00 75 1016.0
20260905133033 82 118 0.9 0.9 0.00 0.00 0.00 76 1016.0
20260905132511 81 113 0.0 0.9 0.00 0.00 0.00 76 1015.9
20260905132010 80 113 0.0 0.9 0.00 0.00 0.00 76 1015.8
20260905131524 80 113 0.9 0.9 0.00 0.00 0.00 76 1015.9
20260905131012 81 95 0.9 0.9 0.00 0.00 0.00 77 1016.0
20260905130514 81 1 0.0 0.9 0.00 0.00 0.00 77 1016.0
20260905130029 80 1 0.0 0.9 0.00 0.00 0.00 78 1016.1
20260905125515 79 1 0.0 0.9 0.00 0.00 0.00 81 1016.1
20260905125016 78 1 0.0 0.9 0.00 0.00 0.00 83 1016.1
20260905124531 77 1 0.0 0.9 0.00 0.00 0.00 85 1016.1
20260905124019 76 1 0.0 0.0 0.00 0.00 0.00 88 1016.0
20260905123516 75 1 0.0 0.0 0.00 0.00 0.00 88 1015.9
20260905123031 74 1 0.0 0.0 0.00 0.00 0.00 89 1015.8
20260905122517 74 1 0.0 0.9 0.00 0.00 0.00 90 1015.8
20260905122010 73 1 0.0 0.9 0.00 0.00 0.00 90 1015.8
20260905121515 73 1 0.0 0.9 0.00 0.00 0.00 90 1015.8
20260905121012 72 1 0.0 0.0 0.00 0.00 0.00 90 1015.7
20260905120512 72 1 0.0 0.0 0.00 0.00 0.00 90 1015.7
20260905120026 72 1 0.0 0.0 0.00 0.00 0.00 92 1015.7
20260905115514 71 1 0.0 0.0 0.00 0.00 0.00 92 1015.6
20260905115014 71 1 0.0 0.0 0.00 0.00 0.00 92 1015.5
20260905114527 70 1 0.0 0.9 0.00 0.00 0.00 93 1015.5
20260905114016 70 1 0.0 0.9 0.00 0.00 0.00 94 1015.4
20260905113514 70 1 0.0 0.9 0.00 0.00 0.00 94 1015.3
20260905113042 70 1 0.0 0.0 0.00 0.00 0.00 94 1015.2
20260905112515 70 2 0.0 0.0 0.00 0.00 0.00 94 1015.2
20260905112014 70 1 0.0 0.0 0.00 0.00 0.00 93 1015.1
20260905111553 70 1 0.0 0.0 0.00 0.00 0.00 92 1015.0
20260905111016 70 1 0.0 0.0 0.00 0.00 0.00 93 1015.0
20260905110510 70 1 0.0 0.0 0.00 0.00 0.00 93 1015.0
20260905110036 70 1 0.0 0.0 0.00 0.00 0.00 93 1015.0
20260905105512 70 1 0.0 0.0 0.00 0.00 0.00 93 1014.9
20260905105010 70 1 0.0 0.0 0.00 0.00 0.00 93 1014.9
20260905104528 70 1 0.0 0.0 0.00 0.00 0.00 93 1014.9
20260905104013 70 1 0.0 0.0 0.00 0.00 0.00 92 1014.8
20260905103517 71 1 0.0 0.0 0.00 0.00 0.00 93 1014.9
20260905103030 70 1 0.0 0.0 0.00 0.00 0.00 93 1014.8
20260905102518 70 1 0.0 0.0 0.00 0.00 0.00 93 1014.6
20260905102016 70 2 0.0 0.9 0.00 0.00 0.00 93 1014.6
20260905101546 70 1 0.0 0.9 0.00 0.00 0.00 92 1014.6
20260905101006 71 1 0.0 0.9 0.00 0.00 0.00 92 1014.6
20260905100508 71 1 0.0 0.0 0.00 0.00 0.00 91 1014.5
20260905100014 71 1 0.0 0.0 0.00 0.00 0.00 92 1014.4
20260905095514 71 1 0.0 0.9 0.00 0.00 0.00 92 1014.4
20260905095012 71 1 0.0 0.9 0.00 0.00 0.00 92 1014.4
20260905094523 71 1 0.0 0.0 0.00 0.00 0.00 92 1014.4
20260905094013 71 1 0.0 0.0 0.00 0.00 0.00 92 1014.3
20260905093504 71 1 0.0 0.0 0.00 0.00 0.00 92 1014.3
20260905093004 71 1 0.0 0.0 0.00 0.00 0.00 92 1014.3
20260905092504 71 2 0.0 0.9 0.00 0.00 0.00 92 1014.3
20260905092004 71 2 0.0 0.9 0.00 0.00 0.00 92 1014.3
20260905091513 71 1 0.0 0.0 0.00 0.00 0.00 92 1014.3
20260905091006 71 1 0.0 0.0 0.00 0.00 0.00 92 1014.2
20260905090506 71 1 0.0 0.0 0.00 0.00 0.00 90 1014.2
20260905090018 71 2 0.0 0.0 0.00 0.00 0.00 91 1014.2
20260905085508 71 2 0.0 0.0 0.00 0.00 0.00 91 1014.2
20260905085010 71 1 0.0 0.0 0.00 0.00 0.00 91 1014.1
20260905084519 71 1 0.0 0.0 0.00 0.00 0.00 91 1014.1
20260905084012 71 1 0.0 0.0 0.00 0.00 0.00 91 1014.1
20260905083512 72 1 0.0 0.0 0.00 0.00 0.00 91 1014.0
20260905083031 72 1 0.0 0.0 0.00 0.00 0.00 91 1014.0
20260905082513 72 1 0.0 0.0 0.00 0.00 0.00 91 1014.0
20260905082002 72 1 0.0 0.0 0.00 0.00 0.00 91 1014.1
20260905081507 72 2 0.0 0.0 0.00 0.00 0.00 91 1014.1
20260905081006 72 2 0.0 0.0 0.00 0.00 0.00 89 1014.2
20260905080504 72 1 0.0 0.9 0.00 0.00 0.00 90 1014.1
20260905080013 72 1 0.0 0.9 0.00 0.00 0.00 90 1014.1
20260905075506 72 1 0.0 0.9 0.00 0.00 0.00 90 1014.1
20260905075008 72 1 0.0 0.9 0.00 0.00 0.00 89 1014.1
20260905074517 73 2 0.0 2.6 0.00 0.00 0.00 89 1014.2
20260905074012 73 1 0.9 2.6 0.00 0.00 0.00 89 1014.3
20260905073510 72 3 0.9 1.7 0.00 0.00 0.00 90 1014.3
20260905073019 72 3 0.0 0.9 0.00 0.00 0.00 90 1014.3
20260905072513 72 3 0.0 0.9 0.00 0.00 0.00 90 1014.2
20260905072015 72 3 0.0 0.9 0.00 0.00 0.00 90 1014.2
20260905071531 72 3 0.0 0.9 0.00 0.00 0.00 90 1014.2
20260905071012 72 3 0.0 0.0 0.00 0.00 0.00 90 1014.2
20260905070505 72 3 0.0 0.0 0.00 0.00 0.00 90 1014.3
20260905070008 72 3 0.0 0.0 0.00 0.00 0.00 90 1014.4
20260905065505 73 3 0.0 0.0 0.00 0.00 0.00 89 1014.4
20260905065004 73 3 0.0 0.0 0.00 0.00 0.00 89 1014.5
20260905064514 73 3 0.0 0.0 0.00 0.00 0.00 89 1014.5
20260905064006 73 3 0.0 0.9 0.00 0.00 0.00 89 1014.6
20260905063507 73 3 0.0 0.9 0.00 0.00 0.00 90 1014.6
20260905063017 72 3 0.0 0.9 0.00 0.00 0.00 90 1014.6
20260905062514 72 3 0.0 0.0 0.00 0.00 0.00 90 1014.6
20260905062010 73 3 0.0 0.0 0.00 0.00 0.00 89 1014.6
20260905061530 73 2 0.0 0.9 0.00 0.00 0.00 90 1014.6
20260905061013 73 3 0.0 0.9 0.00 0.00 0.00 90 1014.7
20260905060514 72 3 0.0 0.0 0.00 0.00 0.00 90 1014.7
20260905060030 72 3 0.0 0.9 0.00 0.00 0.00 89 1014.8
20260905055514 73 3 0.0 0.9 0.00 0.00 0.00 89 1014.8
20260905055004 73 3 0.0 0.9 0.00 0.00 0.00 90 1014.9
20260905054512 73 3 0.0 0.9 0.00 0.00 0.00 89 1014.9
20260905054009 73 3 0.0 0.0 0.00 0.00 0.00 89 1014.9
20260905053506 73 3 0.0 0.9 0.00 0.00 0.00 88 1014.9
20260905053014 73 3 0.0 0.9 0.00 0.00 0.00 88 1014.9